Vorticity
12 9 10 11 11 8 7 7 6 6 5 4 7 9 12 4 7 7 6 8 7 8 8 9 10 8 8 8 8 8 7 8 9 8 7 7 9 11 8 8 10 9 10 8 8
14 9 10 11 10 8 7 6 6 6 5 5 4 7 14 5 5 5 7 8 8 9 9 9 7 8 7 7 8 11 8 6 6 6 4 5 8 6 9 9 9 9 9 10 9
13 11 11 10 9 7 6 6 6 5 6 7 8 6 7 13 1 7 7 8 9 7 9 9 7 6 8 7 7 8 9 8 6 6 7 6 6 6 5 10 8 6 7 7 6
11 11 10 9 8 7 7 6 6 5 7 7 7 10 7 8 7 7 7 6 8 6 9 7 5 6 4 9 6 7 10 7 7 5 8 5 6 7 8 7 8 7 8 7 7
7 8 8 8 7 6 6 5 4 2 3 5 5 10 7 5 6 7 8 7 7 7 6 8 9 5 8 5 10 3 6 12 1 8 7 7 3 11 16 13 7 10 10 8 8
8 7 6 7 7 6 6 7 6 4 4 7 3 5 8 6 7 7 7 7 5 6 6 7 8 9 5 5 9 7 4 5 0 8 4 14 6 7 10 13 7 8 8 10 9
9 8 9 7 4 4 3 2 6 11 11 7 5 3 3 7 7 7 7 7 7 5 6 6 7 8 7 15 8 6 6 8 6 8 2 12 20 0 12 13 8 6 6 8 9
6 7 10 9 10 8 7 4 5 7 4 -0 11 4 5 7 6 7 7 5 7 7 6 5 6 6 6 6 15 8 11 11 -16 6 5 6 23 -4 0 9 12 4 7 7 7
6 6 5 6 8 8 9 9 9 1 5 7 4 14 3 6 5 6 8 6 5 9 6 6 5 4 4 15 6 9 5 5 18 4 6 8 5 2 5 9 12 6 6 7 7
6 5 6 5 5 6 7 8 5 9 6 4 6 9 3 4 6 7 8 7 4 6 7 8 6 9 3 12 7 -3 8 -3 2 -6 -4 11 17 17 12 15 19 10 6 9 6
6 6 6 6 5 5 7 6 7 10 5 4 3 5 6 10 5 7 8 7 4 5 6 7 13 -2 5 3 7 5 7 8 -0 1 3 11 6 24 21 12 16 14 8 9 7
8 8 8 8 8 6 7 7 9 3 7 8 6 4 7 6 10 3 6 7 7 6 7 14 10 0 6 5 3 6 9 8 4 2 14 15 4 10 10 10 14 19 11 12 7
8 8 9 9 9 8 8 10 10 9 8 9 13 7 4 7 8 9 6 6 6 9 6 6 -3 1 8 5 3 13 8 -0 0 2 27 9 27 -8 17 -11 24 16 13 14 9
8 9 9 9 10 10 10 10 9 7 21 12 15 16 5 10 21 -4 5 6 9 5 7 25 6 -0 8 6 5 25 -7 0 5 30 4 5 -4 18 -10 20 11 9 15 10 11
7 8 9 9 9 9 8 8 7 11 14 6 14 8 7 7 4 16 5 6 5 1 13 -8 4 7 3 12 3 -11 10 1 21 26 14 16 10 -13 10 24 -6 11 13 15 11
5 6 7 8 8 9 9 9 9 19 9 5 8 -4 7 8 7 6 6 8 6 12 5 9 14 3 9 7 3 -5 16 28 10 25 18 17 4 -17 35 -6 -23 23 12 11 19
5 7 6 6 7 7 8 8 23 9 5 7 -4 7 -0 5 10 11 12 11 2 19 16 7 11 22 10 15 -3 8 17 16 13 2 -9 2 18 -10 9 3 9 9 8 13 24
4 4 5 7 7 7 7 11 13 3 -4 5 -4 5 10 20 21 7 0 6 10 10 13 14 9 3 7 -6 -9 5 12 -2 15 -0 -20 18 17 7 -23 29 17 3 7 13 10
5 6 5 5 3 7 9 17 3 6 6 -1 11 33 21 1 -1 16 19 7 17 18 0 3 6 10 -4 -2 15 3 9 -2 5 40 22 14 0 -2 28 -1 12 3 12 1 11
6 6 5 6 5 6 5 3 -1 4 3 7 13 10 -1 8 11 14 15 -6 13 23 -3 -8 18 11 7 10 12 16 -12 5 12 11 13 -4 13 34 8 -1 7 6 2 13 25
7 8 10 9 7 7 14 -5 7 6 11 11 -4 -10 14 9 -4 11 -5 -4 16 17 16 -1 25 -3 10 11 13 11 10 7 6 -4 -3 8 3 -22 -2 14 -7 1 10 5 12
7 10 11 2 6 11 9 11 7 2 2 7 9 15 16 5 9 12 6 -6 -7 -4 13 1 -4 6 6 6 2 10 -9 15 -10 26 6 -7 -9 53 41 -17 -9 19 1 6 7
9 8 11 15 16 6 8 -0 8 14 15 14 -5 -11 1 2 19 18 3 6 3 4 0 -1 4 19 34 29 35 28 14 6 12 -11 11 -21 -24 -45 -7 -6 21 14 10 4 5
13 16 10 4 22 25 20 15 12 9 -2 -11 2 3 6 8 20 -5 -7 1 -11 2 3 9 7 -11 -38 -40 -23 -17 6 -0 13 -8 3 -18 -12 12 13 5 12 5 10 1 2
7 11 4 -14 -14 -9 -11 -23 -6 3 16 12 8 11 24 9 1 1 22 27 34 21 22 18 -14 15 9 6 5 6 14 22 11 0 -20 -20 2 13 -0 1 6 4 11 19 20
0 3 9 5 5 5 11 12 19 14 6 12 15 13 -1 1 3 -12 -25 -17 0 -0 -4 11 7 2 2 9 20 22 31 14 21 25 18 5 -9 28 18 13 7 15 -6 9 5
14 10 21 7 13 16 11 13 8 1 19 12 15 15 8 8 9 11 12 9 -10 -11 -4 8 10 -10 2 23 30 47 32 54 15 16 8 27 24 4 -3 -3 14 3 -0 13 17
Height
3142 3142 3143 3144 3145 3146 3147 3147 3147 3148 3147 3147 3145 3144 3143 3142 3141 3140 3139 3139 3137 3135 3134 3133 3132 3131 3130 3130 3130 3130 3133 3133 3132 3131 3130 3127 3126 3124 3123 3122 3120 3119 3119 3118 3116
3143 3144 3144 3145 3146 3147 3148 3149 3149 3149 3148 3147 3146 3144 3143 3143 3142 3141 3141 3139 3138 3136 3135 3134 3132 3132 3131 3131 3131 3131 3132 3130 3129 3128 3127 3125 3124 3123 3122 3120 3119 3117 3116 3115 3114
3145 3146 3146 3147 3148 3149 3150 3150 3150 3149 3148 3148 3146 3145 3144 3143 3144 3143 3141 3140 3139 3137 3136 3135 3134 3133 3132 3131 3131 3130 3130 3129 3128 3127 3126 3124 3123 3121 3120 3119 3117 3115 3113 3112 3111
3148 3148 3149 3149 3150 3150 3151 3151 3150 3150 3149 3148 3147 3146 3145 3145 3147 3144 3142 3141 3140 3139 3138 3136 3135 3134 3133 3132 3131 3130 3129 3128 3127 3126 3124 3123 3121 3119 3117 3116 3114 3113 3112 3110 3109
3152 3152 3152 3152 3152 3152 3152 3152 3152 3151 3150 3149 3149 3147 3147 3146 3146 3145 3144 3142 3141 3140 3138 3136 3135 3135 3134 3133 3131 3129 3128 3127 3125 3124 3122 3120 3118 3115 3114 3112 3111 3110 3109 3107 3107
3155 3155 3154 3154 3154 3154 3154 3153 3152 3152 3152 3151 3150 3148 3148 3147 3146 3145 3144 3143 3141 3140 3138 3137 3136 3135 3134 3133 3131 3129 3127 3126 3124 3122 3119 3117 3115 3112 3111 3109 3108 3107 3106 3105 3104
3157 3157 3156 3156 3156 3156 3155 3154 3154 3153 3152 3151 3150 3149 3148 3149 3146 3145 3144 3143 3141 3140 3139 3137 3136 3136 3134 3132 3130 3128 3127 3124 3122 3120 3118 3114 3112 3109 3108 3106 3105 3104 3104 3103 3101
3160 3159 3158 3157 3157 3156 3155 3155 3154 3153 3153 3151 3150 3149 3148 3147 3146 3145 3144 3143 3141 3139 3139 3137 3136 3135 3133 3131 3129 3127 3127 3126 3121 3118 3115 3114 3110 3105 3105 3103 3102 3101 3100 3099 3098
3161 3160 3159 3158 3158 3157 3156 3155 3154 3153 3152 3151 3150 3149 3148 3147 3146 3145 3143 3142 3141 3140 3138 3137 3136 3134 3133 3130 3129 3127 3128 3126 3122 3117 3113 3111 3106 3104 3100 3098 3097 3096 3096 3096 3095
3162 3161 3160 3159 3158 3157 3156 3154 3153 3152 3151 3151 3150 3151 3149 3148 3146 3144 3143 3142 3141 3139 3138 3137 3135 3133 3132 3131 3131 3128 3126 3124 3122 3118 3110 3107 3100 3099 3096 3093 3093 3092 3092 3092 3092
3163 3162 3161 3160 3158 3157 3156 3154 3155 3154 3150 3150 3150 3149 3148 3147 3146 3144 3143 3142 3140 3139 3137 3136 3135 3134 3131 3129 3128 3126 3123 3121 3119 3113 3107 3102 3097 3095 3094 3091 3089 3089 3089 3088 3088
3163 3162 3161 3159 3158 3157 3155 3154 3153 3153 3150 3148 3148 3147 3147 3145 3145 3143 3143 3142 3140 3138 3137 3136 3133 3132 3129 3127 3125 3123 3120 3119 3114 3110 3105 3100 3095 3092 3091 3090 3088 3087 3086 3085 3084
3164 3162 3161 3159 3158 3156 3155 3153 3152 3150 3149 3146 3145 3145 3146 3145 3143 3142 3142 3140 3138 3137 3135 3134 3132 3129 3127 3125 3123 3122 3120 3117 3113 3106 3102 3097 3093 3090 3089 3087 3085 3084 3083 3082 3081
3164 3162 3160 3159 3159 3155 3154 3152 3151 3149 3147 3146 3144 3144 3144 3143 3142 3140 3139 3140 3137 3135 3133 3131 3129 3127 3125 3123 3121 3119 3116 3113 3109 3105 3104 3098 3095 3090 3086 3084 3083 3081 3080 3079 3078
3164 3162 3160 3158 3157 3155 3154 3152 3150 3149 3149 3146 3144 3143 3142 3143 3141 3139 3138 3136 3134 3133 3133 3130 3126 3124 3122 3120 3118 3117 3113 3110 3106 3102 3101 3096 3096 3087 3083 3082 3080 3079 3077 3076 3075
3163 3161 3160 3158 3156 3155 3153 3151 3150 3150 3145 3144 3143 3142 3141 3139 3138 3136 3135 3134 3132 3130 3128 3126 3123 3122 3119 3118 3116 3114 3109 3105 3101 3100 3099 3092 3093 3086 3082 3080 3079 3079 3075 3073 3072
3162 3160 3159 3157 3156 3154 3152 3151 3150 3147 3146 3144 3142 3140 3138 3136 3134 3132 3131 3130 3130 3128 3125 3121 3120 3118 3117 3115 3114 3111 3109 3105 3099 3097 3091 3089 3089 3081 3079 3077 3077 3075 3073 3071 3069
3160 3158 3157 3155 3154 3152 3151 3150 3149 3144 3143 3141 3140 3137 3135 3133 3131 3129 3128 3127 3125 3124 3122 3120 3117 3116 3114 3113 3112 3109 3109 3109 3101 3092 3089 3087 3081 3076 3076 3074 3072 3071 3070 3067 3065
3157 3156 3155 3153 3152 3150 3150 3149 3146 3143 3141 3139 3136 3133 3131 3130 3130 3127 3125 3124 3121 3120 3122 3118 3115 3112 3111 3109 3110 3106 3106 3105 3102 3094 3089 3076 3073 3071 3069 3068 3068 3067 3065 3063 3061
3153 3152 3151 3150 3149 3148 3147 3145 3143 3141 3139 3136 3135 3133 3131 3129 3128 3125 3123 3120 3118 3118 3117 3114 3111 3107 3106 3105 3104 3103 3102 3101 3101 3094 3077 3066 3069 3067 3066 3065 3063 3062 3061 3058 3056
3149 3147 3147 3146 3145 3144 3142 3140 3138 3137 3135 3134 3131 3129 3128 3126 3124 3124 3121 3118 3115 3114 3113 3111 3108 3103 3100 3098 3098 3097 3094 3094 3095 3092 3085 3069 3062 3064 3063 3061 3060 3058 3054 3052 3050
3143 3143 3142 3141 3141 3138 3137 3135 3134 3132 3130 3128 3126 3124 3123 3122 3118 3117 3114 3113 3111 3110 3107 3106 3103 3097 3096 3092 3091 3089 3089 3089 3087 3082 3078 3073 3054 3059 3059 3058 3054 3052 3050 3047 3045
3137 3136 3136 3135 3134 3134 3130 3130 3128 3127 3125 3122 3121 3120 3118 3116 3115 3110 3107 3106 3105 3104 3100 3099 3097 3094 3089 3087 3084 3082 3082 3081 3077 3076 3069 3069 3054 3055 3055 3054 3051 3048 3044 3041 3038
3132 3130 3128 3128 3127 3126 3124 3123 3122 3121 3119 3118 3115 3114 3112 3109 3109 3103 3100 3100 3100 3098 3096 3093 3090 3090 3084 3081 3083 3076 3074 3072 3071 3067 3060 3054 3048 3047 3052 3048 3042 3039 3037 3034 3029
3126 3124 3122 3123 3123 3121 3119 3118 3116 3116 3113 3110 3106 3107 3106 3102 3101 3098 3096 3092 3089 3088 3088 3086 3079 3079 3075 3072 3071 3066 3064 3062 3058 3054 3053 3039 3047 3045 3043 3037 3034 3032 3030 3027 3020
3120 3119 3114 3114 3112 3113 3112 3108 3106 3106 3106 3103 3100 3100 3098 3095 3095 3089 3088 3086 3083 3079 3079 3074 3069 3068 3060 3063 3058 3048 3050 3048 3046 3045 3042 3038 3033 3038 3032 3030 3028 3025 3022 3018 3014
3110 3111 3108 3104 3104 3103 3103 3101 3098 3096 3095 3094 3093 3092 3090 3089 3085 3082 3079 3077 3074 3071 3069 3068 3065 3061 3049 3056 3050 3042 3038 3036 3036 3037 3034 3033 3032 3026 3026 3022 3019 3016 3013 3011 3006